www.pogodaiklimat.ru

Погода и климат >> Архив погоды >> Новая Зеландия >> Каслпойнт


ПОГОДА в Каслпойнт

  • Прогноз погоды в Каслпойнт
  • Монитор погоды в Каслпойнт

АРХИВ ПОГОДЫ в Каслпойнт

Время (UTC), дата Ветер
(напр.,м/с)
 
Видим.   Явления Облачность Т
(С)
Тd
(С)
f
(%)
Тe
(С)
Тes
(С)
Комфортность P
(гПа)
Po
(гПа)
Тmin
(С)
Tmax
(С)
R
(мм)
R24
(мм)
S
(см)
00 14.09 С 6 н/о н/о +14.8 +9.6 71 +13 +13 1011.7 997.6 +10.1
03 14.09 С 4 н/о н/о +13.5 +9.6 77 +12 +12 1009.9 995.8
06 14.09 Ю 1 н/о н/о +11.8 +10.9 94 +12 +12 1009.3 995.1 4
09 14.09 З 3 н/о н/о +10.7 +10.0 95 +9 +9 1008.7 994.5
12 14.09 С 2 н/о н/о +10.6 +9.6 94 +9 +9 1006.5 992.3 +15.1
15 14.09 С 5 н/о н/о +10.1 +8.1 87 +7 +7 1005.0 990.8
18 14.09 С 8 н/о н/о +10.4 +7.7 83 +7 +7 1004.4 990.2 0.4
21 14.09 СЗ 15 н/о н/о +11.4 +8.2 81 +7 +7 1004.0 989.9
00 15.09 СЗ 12 н/о н/о +13.3 +5.0 57 +10 +10 1004.8 990.7 +9.8 5
03 15.09 З 9 н/о н/о +13.1 +5.3 59 +10 +10 1005.7 991.6
06 15.09 СЗ 11 н/о н/о +11.1 +3.3 59 +7 +7 1005.9 991.7
09 15.09 СЗ 13 н/о н/о +10.8 +4.6 66 +6 +6 1006.5 992.3
12 15.09 СЗ 14 н/о н/о +10.8 +4.9 67 +6 +6 1006.2 992.0 +14.2
15 15.09 З 7 н/о н/о +10.5 +4.1 65 +7 +7 1006.6 992.4
18 15.09 З 11 н/о н/о +10.8 +5.0 67 +7 +7 1006.7 992.5
21 15.09 СЗ 16 н/о н/о +13.0 +6.4 64 +9 +9 1008.1 994.0
00 16.09 СЗ 13 н/о н/о +15.2 +7.2 59 +13 +13 1009.4 995.4 +10.2
03 16.09 СЗ 19 н/о н/о +14.8 +8.6 66 +11 +11 1008.1 994.1
06 16.09 СЗ 18 н/о н/о +13.1 +8.4 73 +9 +9 1007.4 993.3
09 16.09 СЗ 18 н/о н/о +12.5 +9.1 80 +8 +8 1009.2 995.0
12 16.09 С 8 н/о н/о +12.5 +10.2 86 +9 +9 1007.2 993.1 +16.8
15 16.09 СЗ 21 н/о н/о +14.1 +7.5 64 +10 +10 1002.5 988.5
18 16.09 З 13 н/о н/о +14.9 +10.0 72 +12 +12 1004.7 990.7
21 16.09 СЗ 13 н/о н/о +17.0 +11.8 71 +15 +15 1006.9 993.0
00 17.09 З 6 н/о н/о +18.1 +10.3 60 +18 +18 1010.3 996.4 +11.8
03 17.09 З 6 н/о н/о +13.2 +8.6 74 +11 +11 1013.9 999.7
06 17.09 ЮВ 4 н/о н/о +11.2 +8.3 82 +9 +9 1018.1 1003.7
09 17.09 Ю 6 н/о н/о +9.1 +6.5 84 +5 +5 1022.2 1007.7
12 17.09 СЗ 2 н/о н/о +7.8 +5.9 88 +6 +6 1024.5 1009.9 +19.4 2
15 17.09 Ю 7 н/о н/о +8.7 +6.1 84 +5 +5 1027.1 1012.5
18 17.09 З 2 н/о н/о +7.1 +5.3 88 +5 +5 1028.9 1014.2
21 17.09 В 2 н/о н/о +10.9 +6.2 73 +10 +10 1030.8 1016.3
00 18.09 СВ 6 н/о н/о +11.7 +8.0 78 +9 +9 1030.4 1015.9 +6.6
03 18.09 СВ 9 н/о н/о +12.0 +8.0 76 +9 +9 1029.5 1015.0
06 18.09 С 8 н/о н/о +10.7 +8.4 86 +7 +7 1030.0 1015.5
09 18.09 С 8 н/о н/о +10.1 +6.6 79 +6 +6 1031.2 1016.6
12 18.09 СЗ 5 н/о н/о +8.4 +4.9 79 +5 +5 1032.1 1017.4 +12.8
15 18.09 СЗ 6 н/о н/о +8.4 +3.1 69 +5 +5 1032.0 1017.3
18 18.09 СЗ 9 н/о н/о +8.9 +5.1 77 +4 +4 1032.3 1017.6
21 18.09 СЗ 8 н/о н/о +11.9 +6.1 68 +9 +9 1032.9 1018.4
00 19.09 ЮВ 4 н/о н/о +12.4 +7.2 71 +11 +11 1032.9 1018.4 +7.6
03 19.09 ЮВ 3 н/о н/о +12.0 +5.6 65 +11 +11 1031.8 1017.3
06 19.09 В 2 н/о н/о +10.6 +4.9 68 +9 +9 1032.1 1017.5
09 19.09 В 2 н/о н/о +10.1 +6.6 79 +9 +9 1032.6 1018.0
12 19.09 ЮЗ 1 н/о н/о +9.6 +6.8 83 +10 +10 1032.8 1018.2 +15.7
15 19.09 З 2 н/о н/о +8.6 +7.0 90 +7 +7 1032.9 1018.2
18 19.09 З 3 н/о н/о +7.9 +5.9 87 +5 +5 1033.7 1019.0
21 19.09 ЮЗ 9 н/о н/о +10.1 +8.2 88 +6 +6 1035.7 1021.0
00 20.09 Ю 11 н/о н/о +11.0 +8.9 87 +7 +7 1035.7 1021.1 +7.4
03 20.09 Ю 11 н/о н/о +10.8 +8.9 88 +6 +6 1035.5 1020.9
06 20.09 Ю 7 н/о н/о +9.8 +8.9 94 +6 +6 1036.2 1021.5 1
09 20.09 Ю 4 н/о н/о +8.9 +8.3 96 +6 +6 1037.3 1022.6
12 20.09 ЮЗ 5 н/о н/о +8.9 +8.2 95 +5 +5 1037.1 1022.4 +11.4 0.2
15 20.09 ЮЗ 5 н/о н/о +8.3 +7.5 95 +5 +5 1036.9 1022.1
18 20.09 З 4 н/о н/о +8.2 +6.8 91 +5 +5 1037.3 1022.5 0.2

 

Местоположение метеостанции Каслпойнт (Новая Зеландия): широта -40.90 долгота 176.23 высота над уровнем моря 20 м.

В архиве по умолчанию представлена погода в Каслпойнт за последнюю неделю. Архивные данные за месяц целиком и за предыдущие месяцы, начиная с января 2011 года, Вы можете получить, выбрав интересующий диапазон дат из раскрывающегося списка и нажав кнопку "Ввод!".


*Определитесь, кто Вы:
робот инопланетянин человек

Внимание! Время в таблицах - всемирное. Для получения местного времени необходимо прибавить поправку, которая равна 12 ч.

Смотрите также архив погоды в соседних городах и на ближайших метеорологических станциях:

Погода в Пальмерстон-Норте (Новая Зеландия) (84 км)
Погода в Парапарауму (Новая Зеландия) (105 км)
Погода в Веллингтоне (Новая Зеландия) (129 км)
Погода в Нейпире (Новая Зеландия) (170 км)
Погода на Уэйауру (Новая Зеландия) (171 км)
Погода на Мысе Кэмпбелл (Новая Зеландия) (193 км)
Погода на Таупо (Новая Зеландия) (242 км)
Погода в Нельсоне (Новая Зеландия) (255 км)
Погода в Кайкуре (Новая Зеландия) (269 км)
Погода в Нью-Плимуте (Новая Зеландия) (273 км)

Пояснения к столбцам:

Ветер - указаны скорость ветра в м/с - средняя за 10 мин, порывы в срок и между сроками (в фигурных скобках) и направление, откуда дует ветер: С - северный, СВ - северо-восточный, В - восточный, ЮВ - юго-восточный, Ю - южный, ЮЗ - юго-западный, З - западный, СЗ - северо-западный.
Видимость - горизонтальная дальность видимости в метрах или километрах. При видимости от 1 до 10 км при отсутствии осадков обычно наблюдается дымка, при ухудшении видимости до 1 км и менее - туман. В сухую погоду видимость может ухудшаться дымом, пылью или мглою.
Явления - указаны атмосферные явления, наблюдавшиеся в срок или в последний час перед сроком; фигурными скобками обозначены явления, наблюдавшиеся между сроками (за 1-3 часа до срока); квадратными скобками обозначены град или гололедные отложения с указанием их диаметра в мм.
Облачность - указаны через наклонную черту общая и нижняя облачность в баллах и высота нижней границы облаков в метрах; квадратными скобками обозначены формы облаков: Ci - перистые, Cs - перисто-слоистые, Cc - перисто-кучевые, Ac - высококучевые, As - высокослоистые, Sc - слоисто-кучевые, Ns - слоисто-дождевые, Cu - кучевые, Cb - кучево-дождевые. Подробнее классификацию облаков см. в Атласе облаков (PDF).
T - Температура воздуха - температура, измеренная на высоте 2 м над землей.
Td - Температура точки росы - температура, при понижении до которой содержащийся в воздухе водяной пар достигнет насыщения.
f - Относительная влажность воздуха - влажноcть воздуха, измеренная на высоте 2 м над землей.
Te - Эффективная температура - температура, которую ощущает одетый по сезону человек в тени. Характеристика душности погоды. При расчете учитывается влияние влажности воздуха и скорости ветра на теплоощущения человека.
Tes - Эффективная температура на солнце - температура, которую ощущает человек, с поправкой на солнечный нагрев. Характеристика знойности погоды. Зависит от высоты солнца над горизонтом, облачности и скорости ветра. Ночью, в пасмурную погоду, а также при ветре 12 м/с и более поправка равна нулю.
P - Атмосферное давление - приведенное к уровню моря атмосферное давление.
Po - Атмосферное давление - измеренное на уровне метеостанции атмосферное давление.
Tmin - Минимальная температура - минимум температуры воздуха на высоте 2 м над землей.
Tmax - Максимальная температура - максимум температуры воздуха на высоте 2 м над землей.
R - Количество осадков - Количество выпавших осадков за период времени, мм. При наведении курсора мыши на число - период времени, за который выпало указанное количество осадков.
R24 - Количество осадков - Количество выпавших осадков за 24 часа, мм.
S - Снежный покров - Высота снежного покрова, см. При наведении курсора мыши на число - состояние снежного покрова и степень покрытия местности в баллах.